Location: Kervinic
(48.4279°N, 4.7373°W)
Time: 22:55:12
(UTC+00:00)

Terra - Pass Details

Date: 09 April 2020
Orbit: 701 x 703 km, 98.2° (Epoch: 03 June)

Event Time Altitude Azimuth Distance (km) Brightness Sun altitude
Exits shadow 23:47:09 13° 284° (WNW) 1,993 4.4 -33.1°
Drops below altitude 10° 23:48:34 10° 301° (WNW) 2,180 4.8 -33.1°
Sets 23:52:06 0° 329° (NNW) 3,105 6.1 -33.2°
